Wind_Speed
42 42 42 41 41 41 41 41 41 42 42 43 44 44 45 46 46 47 46 46 46 46 47 48 49 50 51 50 49 49 49 49 48 47 47 47 47 47 46 47 47 47 47
43 43 42 42 42 42 41 42 42 43 44 44 45 46 46 46 47 47 46 46 46 47 48 49 50 51 50 49 49 49 49 49 48 47 47 46 46 46 47 47 46 46 46
44 43 43 43 42 42 43 43 43 44 45 46 46 46 46 47 47 47 46 47 47 48 49 50 51 51 50 49 50 49 49 48 47 47 46 46 46 46 46 45 45 45 44
44 44 43 43 43 43 43 44 44 45 46 46 46 46 47 47 47 47 48 48 49 49 50 51 51 50 49 50 50 48 47 47 47 47 46 46 45 46 45 44 43 43 42
44 44 44 44 44 44 44 44 45 46 46 46 46 47 47 47 47 47 48 48 49 50 51 51 51 50 50 49 48 47 47 47 47 47 46 45 45 45 44 43 42 40 39
45 44 44 44 44 45 45 45 46 46 46 46 46 46 47 47 47 48 48 49 50 51 51 51 50 49 48 47 46 47 47 46 46 45 45 44 44 44 43 42 41 38 36
45 45 45 45 45 45 46 46 46 46 46 46 46 46 47 47 47 48 48 49 50 51 51 50 48 47 46 45 45 46 46 46 45 44 43 43 43 42 41 40 38 36 34
44 44 45 45 45 45 45 46 46 46 46 46 46 46 47 47 48 49 50 50 51 51 49 48 46 45 44 44 43 44 44 44 43 43 43 42 41 40 39 37 34 33 32
43 43 44 44 44 45 45 45 45 45 46 46 46 46 47 48 49 50 50 50 50 48 47 46 44 43 43 43 43 42 42 42 41 42 41 40 39 39 37 35 33 32 31
42 42 43 43 44 44 45 45 45 45 45 46 46 47 48 48 49 49 49 48 47 46 45 44 43 43 42 42 42 41 40 41 40 39 38 38 38 36 34 33 32 31 30
42 42 42 42 43 43 44 44 45 45 45 46 47 47 47 47 47 47 46 45 44 43 43 41 41 41 41 40 40 40 40 40 39 38 37 36 36 34 32 32 31 30 28
42 41 42 42 43 43 43 43 44 44 45 45 46 46 46 45 44 44 43 42 42 42 41 40 40 40 39 39 39 39 39 39 38 36 35 34 34 32 31 31 29 27 26
41 41 41 41 41 41 41 41 42 42 43 44 44 44 43 42 41 40 40 40 40 40 39 39 39 39 38 38 38 38 38 37 36 34 33 32 31 31 30 28 27 26 24
40 40 40 40 40 41 41 41 41 41 41 41 41 41 40 40 39 39 38 39 39 39 39 38 38 38 37 37 36 36 35 34 33 31 30 30 30 29 28 26 25 25 23
39 39 40 40 40 40 40 40 40 40 40 40 39 39 39 39 38 38 38 39 39 38 37 36 36 35 35 34 33 32 32 31 30 29 29 28 27 26 26 24 23 22 21
38 39 39 40 40 40 40 40 40 40 40 39 39 39 39 39 38 38 38 38 37 36 35 34 33 32 32 31 30 29 29 29 28 27 26 25 25 24 23 22 21 20 18
38 39 39 40 40 40 40 40 40 40 40 39 38 38 38 38 38 37 37 36 35 33 32 31 30 29 29 28 28 27 27 27 26 25 24 23 22 21 20 19 17 16 15
39 39 39 39 40 39 39 39 39 40 39 38 38 38 37 37 36 36 35 33 32 31 30 29 29 28 27 27 26 26 26 25 24 22 21 20 19 18 17 15 14 13 12
37 37 38 38 38 39 39 39 39 38 37 37 37 36 36 36 35 34 32 31 30 29 29 28 27 27 26 26 26 25 24 23 20 19 19 18 17 15 14 13 11 11 10
35 35 36 36 36 37 37 37 36 36 36 35 35 35 34 34 33 32 31 29 28 27 27 26 25 25 24 24 24 23 21 18 17 17 16 15 14 13 11 11 10 9 7
34 34 34 34 34 35 35 35 34 34 34 33 33 33 33 32 31 30 29 28 27 26 25 25 24 23 23 22 22 21 18 16 15 14 13 13 11 10 9 8 7 6 4
33 33 33 33 33 33 33 32 32 32 31 31 31 31 30 29 29 28 27 26 25 24 23 22 22 22 21 21 20 18 16 15 14 13 12 10 9 8 8 6 4 2 2
32 32 32 32 32 31 30 30 29 29 28 28 28 27 27 26 26 25 25 24 23 23 22 21 21 20 19 18 17 15 14 13 12 11 9 8 8 6 5 3 1 3 5
29 29 29 29 29 29 28 27 27 26 26 25 25 24 24 24 24 24 23 23 22 21 20 19 19 18 16 15 13 12 10 10 9 8 7 6 5 3 2 3 5 7 8
26 26 26 26 26 26 25 25 25 25 24 24 23 23 23 23 23 23 22 21 20 19 18 16 15 14 13 11 10 9 9 8 7 6 5 4 4 4 6 7 8 10 10
23 23 23 23 23 23 23 22 22 22 22 22 21 21 21 21 20 20 19 18 17 16 14 13 12 11 11 9 8 8 7 7 5 5 5 6 6 7 8 9 10 11 12
Wind_Direction
249 252 255 258 260 261 263 266 268 271 273 276 278 280 282 284 286 287 289 290 291 293 294 296 297 299 300 300 300 301 301 301 301 303 303 304 304 305 306 306 307 308 308
250 252 255 257 259 261 263 266 269 271 273 276 278 280 282 284 286 287 288 289 291 293 294 296 297 299 300 300 301 301 300 300 301 302 303 304 304 306 307 307 307 308 310
250 253 254 256 259 262 264 266 269 272 274 277 279 280 282 283 285 287 288 290 291 293 295 296 297 298 298 299 301 301 300 300 301 302 303 304 304 306 307 308 308 309 310
250 252 254 256 259 262 264 267 270 272 275 277 278 280 281 283 285 286 288 289 291 293 295 296 297 298 298 299 300 300 299 299 300 301 303 304 305 307 308 308 309 309 310
250 252 255 257 259 261 264 267 270 273 275 277 278 280 282 283 284 286 288 290 291 293 295 296 297 297 298 298 298 298 299 299 299 300 302 303 304 306 307 308 308 308 311
251 253 255 257 260 262 265 268 271 273 275 276 278 280 282 284 285 287 288 290 292 294 295 296 296 296 296 297 297 298 299 299 299 300 302 303 304 305 306 307 307 307 308
253 254 256 258 261 263 266 268 270 272 274 277 278 280 282 284 285 287 289 291 292 294 295 295 295 295 295 296 296 298 299 299 300 300 301 303 304 305 306 307 307 307 308
254 256 258 260 262 264 266 268 270 272 274 276 278 281 282 284 286 287 289 291 293 294 294 294 294 294 295 296 297 297 298 299 299 299 301 303 304 305 306 307 307 308 309
254 256 258 261 263 265 267 268 269 271 274 276 278 280 282 284 286 288 290 291 292 293 293 293 293 294 295 295 296 297 298 299 298 299 301 302 303 305 305 306 306 308 309
255 257 259 261 263 265 267 268 270 272 274 276 279 281 283 285 287 289 290 291 292 292 293 293 293 294 294 295 296 297 298 299 299 299 300 301 303 304 305 306 307 308 308
256 258 260 262 264 267 268 270 272 274 275 278 281 282 284 285 287 289 290 290 290 291 292 292 292 294 294 295 295 296 297 299 299 299 300 300 302 302 303 305 306 306 306
256 258 260 262 265 267 269 270 272 274 276 279 281 283 284 285 286 287 288 288 290 291 291 291 292 293 294 295 296 296 296 298 297 297 298 299 301 300 301 303 305 305 305
256 259 261 264 267 268 270 271 272 275 277 280 281 283 284 284 285 285 286 287 289 290 291 291 292 293 294 295 296 296 297 298 297 296 296 298 299 299 299 301 302 304 304
257 259 262 265 267 269 270 271 272 274 277 279 281 282 282 283 283 283 284 286 289 289 289 290 291 292 293 294 295 296 297 298 297 296 295 297 298 299 300 300 301 302 303
260 262 265 266 267 269 270 272 273 274 276 278 280 280 280 280 281 282 284 286 287 286 287 288 290 291 292 293 295 296 297 298 298 297 297 297 298 298 299 300 301 302 303
260 262 265 266 267 268 270 272 273 275 277 279 280 280 280 280 280 282 284 286 286 286 286 288 289 290 291 293 295 297 298 300 300 299 298 299 299 299 299 300 301 304 305
262 263 264 265 267 268 270 272 274 276 278 279 280 281 280 280 281 282 283 285 284 284 285 287 288 290 291 292 294 296 298 300 299 299 300 300 301 301 301 302 303 306 308
265 266 266 266 267 269 270 272 274 276 276 278 279 280 280 281 281 282 283 283 282 283 284 285 286 287 289 291 293 294 296 298 298 298 300 301 302 301 300 302 305 308 308
267 267 266 266 268 270 271 273 275 275 275 277 277 279 279 279 279 280 281 280 279 281 282 283 284 285 286 288 290 292 295 295 293 296 299 300 301 302 302 300 301 304 305
267 267 268 269 270 271 273 274 274 274 275 275 276 277 278 277 277 278 278 278 277 279 280 281 282 283 284 286 289 292 293 290 290 295 299 300 301 300 299 299 299 303 302
269 269 269 270 271 272 274 274 274 275 275 275 275 276 277 276 275 274 275 276 276 278 279 280 281 282 283 284 286 287 285 283 285 290 296 300 299 297 296 294 296 300 295
270 270 270 270 271 273 273 273 274 274 274 275 275 275 276 275 273 272 272 273 275 276 277 277 278 280 281 282 282 281 278 277 279 282 288 289 290 293 294 292 292 275 204
269 270 269 270 272 272 272 273 274 273 273 274 274 274 273 272 271 270 270 270 272 273 274 275 277 279 280 279 276 271 267 268 271 273 275 279 281 282 279 273 224 162 149
269 269 269 270 271 271 272 272 272 272 273 272 271 270 270 269 268 268 267 267 268 270 272 274 275 275 275 273 267 261 257 258 259 256 258 265 260 236 195 154 143 142 140
267 267 268 269 270 270 271 271 270 271 271 270 268 267 268 268 267 266 265 263 264 266 267 269 269 266 264 262 254 248 245 243 241 233 227 220 194 167 151 142 141 141 138
266 267 268 268 269 270 270 269 269 269 268 268 266 265 265 266 266 264 262 259 257 255 256 259 260 257 252 247 237 227 221 216 209 197 188 177 163 153 147 143 142 141 137
Height
5712 5714 5716 5717 5718 5719 5719 5720 5720 5719 5718 5717 5716 5714 5712 5709 5706 5703 5700 5696 5692 5689 5684 5680 5675 5670 5665 5659 5654 5649 5643 5638 5634 5630 5624 5618 5612 5606 5600 5594 5588 5581 5575
5702 5704 5706 5707 5708 5709 5710 5710 5710 5709 5708 5707 5705 5703 5701 5698 5695 5692 5689 5686 5682 5678 5674 5669 5664 5659 5654 5648 5643 5638 5633 5627 5623 5619 5614 5608 5602 5596 5590 5584 5578 5571 5565
5692 5694 5696 5697 5698 5699 5700 5700 5700 5699 5698 5696 5695 5693 5690 5687 5685 5681 5678 5675 5671 5667 5663 5658 5653 5648 5643 5638 5633 5627 5622 5617 5612 5607 5603 5597 5592 5586 5580 5574 5568 5562 5556
5682 5684 5686 5687 5688 5689 5689 5689 5689 5688 5687 5685 5684 5681 5679 5676 5674 5671 5667 5664 5660 5656 5651 5647 5642 5636 5632 5627 5621 5616 5611 5606 5601 5597 5592 5587 5582 5576 5570 5565 5560 5553 5547
5671 5673 5675 5677 5678 5678 5679 5679 5678 5677 5676 5674 5672 5670 5668 5665 5662 5659 5656 5653 5649 5644 5640 5635 5630 5625 5620 5615 5610 5605 5600 5596 5591 5587 5582 5578 5572 5567 5561 5556 5551 5545 5540
5661 5663 5664 5666 5667 5667 5668 5667 5667 5666 5665 5663 5661 5659 5657 5654 5651 5648 5645 5641 5637 5633 5628 5623 5619 5614 5609 5604 5599 5594 5589 5584 5580 5576 5572 5567 5563 5557 5552 5546 5541 5537 5533
5650 5651 5653 5655 5656 5656 5656 5656 5655 5655 5653 5652 5650 5648 5645 5643 5640 5637 5633 5630 5625 5621 5616 5612 5607 5602 5597 5593 5589 5584 5579 5574 5570 5566 5562 5558 5553 5548 5543 5538 5533 5528 5524
5639 5640 5642 5643 5644 5645 5645 5645 5644 5643 5642 5640 5639 5637 5634 5631 5628 5625 5622 5618 5614 5609 5604 5600 5595 5591 5586 5582 5578 5574 5569 5565 5560 5556 5553 5549 5544 5539 5534 5530 5525 5521 5517
5628 5630 5631 5632 5633 5633 5633 5633 5632 5631 5630 5629 5627 5625 5623 5620 5617 5613 5610 5606 5602 5597 5593 5589 5584 5580 5576 5572 5568 5564 5560 5556 5551 5547 5544 5540 5535 5531 5526 5522 5518 5515 5512
5617 5619 5620 5621 5621 5622 5622 5621 5621 5620 5619 5617 5616 5613 5611 5608 5605 5601 5597 5594 5590 5586 5582 5578 5574 5570 5566 5562 5558 5555 5551 5547 5543 5539 5535 5532 5527 5523 5519 5515 5511 5508 5504
5607 5608 5609 5610 5610 5610 5610 5610 5609 5608 5607 5606 5604 5602 5599 5596 5592 5589 5585 5582 5579 5575 5572 5568 5564 5560 5556 5552 5549 5545 5542 5538 5534 5531 5527 5524 5520 5516 5512 5508 5504 5501 5497
5596 5597 5598 5598 5599 5599 5599 5598 5597 5597 5596 5594 5592 5589 5586 5584 5581 5577 5574 5571 5568 5565 5561 5558 5554 5551 5547 5543 5540 5536 5533 5529 5526 5523 5520 5516 5512 5508 5505 5501 5497 5494 5491
5585 5586 5587 5587 5587 5587 5587 5586 5586 5585 5584 5582 5580 5578 5575 5572 5570 5567 5564 5561 5558 5555 5551 5548 5545 5541 5538 5535 5531 5527 5524 5521 5517 5515 5512 5508 5505 5501 5498 5495 5491 5488 5486
5574 5575 5575 5576 5576 5576 5575 5575 5574 5573 5572 5571 5569 5567 5564 5562 5559 5557 5554 5552 5549 5545 5542 5539 5536 5533 5529 5526 5522 5519 5516 5513 5509 5506 5504 5501 5497 5494 5491 5488 5486 5483 5481
5563 5564 5564 5565 5565 5565 5564 5564 5563 5562 5561 5560 5558 5556 5554 5552 5549 5547 5544 5542 5539 5536 5533 5530 5527 5524 5521 5518 5514 5511 5508 5505 5502 5499 5497 5494 5491 5488 5485 5483 5480 5478 5476
5553 5553 5553 5554 5554 5554 5553 5553 5552 5551 5550 5548 5547 5545 5543 5541 5539 5537 5535 5532 5529 5526 5524 5522 5519 5516 5513 5510 5507 5505 5502 5499 5495 5493 5490 5487 5485 5482 5480 5478 5476 5474 5472
5542 5542 5542 5542 5543 5543 5542 5542 5541 5540 5539 5537 5536 5534 5532 5531 5529 5527 5524 5522 5520 5518 5516 5514 5511 5509 5506 5503 5501 5498 5495 5493 5490 5487 5484 5482 5480 5477 5475 5474 5472 5470 5469
5530 5531 5531 5531 5531 5531 5531 5530 5530 5529 5528 5526 5525 5523 5522 5520 5518 5517 5515 5513 5511 5509 5508 5506 5504 5502 5499 5497 5494 5492 5489 5487 5484 5482 5480 5477 5475 5473 5472 5470 5469 5467 5466
5519 5519 5520 5520 5520 5520 5520 5519 5518 5517 5516 5515 5514 5513 5511 5510 5508 5507 5506 5505 5503 5502 5500 5498 5496 5494 5492 5490 5488 5486 5483 5481 5479 5477 5475 5473 5471 5470 5468 5467 5466 5465 5464
5509 5509 5509 5509 5509 5509 5508 5508 5507 5506 5505 5505 5504 5503 5501 5500 5499 5498 5497 5496 5495 5494 5492 5491 5489 5487 5486 5484 5482 5480 5478 5476 5474 5473 5471 5470 5468 5467 5466 5465 5464 5463 5463
5498 5498 5498 5498 5498 5498 5497 5497 5496 5495 5495 5494 5493 5492 5491 5491 5490 5489 5488 5488 5487 5486 5485 5483 5482 5481 5479 5477 5476 5474 5473 5472 5470 5469 5468 5467 5465 5464 5463 5463 5462 5462 5461
5488 5488 5488 5488 5488 5487 5487 5486 5486 5485 5485 5484 5483 5482 5481 5481 5481 5481 5480 5479 5479 5478 5477 5476 5475 5474 5473 5471 5470 5469 5468 5467 5467 5466 5465 5464 5463 5462 5461 5461 5461 5460 5461
5478 5478 5478 5478 5478 5477 5477 5477 5476 5476 5475 5475 5474 5473 5473 5472 5472 5472 5472 5471 5471 5471 5470 5470 5469 5468 5467 5466 5465 5464 5464 5463 5463 5462 5462 5461 5461 5460 5460 5460 5460 5460 5461
5468 5468 5468 5468 5468 5468 5468 5467 5467 5467 5466 5466 5466 5465 5465 5464 5464 5464 5464 5464 5464 5464 5464 5463 5463 5462 5461 5461 5460 5460 5460 5460 5460 5460 5460 5460 5459 5459 5459 5460 5460 5461 5462
5460 5460 5460 5459 5459 5459 5459 5459 5458 5458 5458 5458 5457 5457 5457 5457 5457 5457 5457 5458 5458 5458 5458 5458 5458 5457 5457 5457 5457 5457 5457 5457 5458 5458 5459 5459 5459 5460 5460 5461 5462 5463 5464
5452 5452 5452 5451 5451 5451 5451 5451 5450 5450 5450 5450 5450 5450 5450 5450 5450 5450 5451 5451 5452 5452 5453 5453 5453 5453 5453 5453 5454 5454 5455 5456 5457 5457 5458 5459 5460 5460 5461 5463 5464 5465 5467